Home > Weather > Kiritimati > Past weeks

Flag for Kiribati Past Weather in Kiritimati, Christmas Island, Kiribati — Yesterday and Last 2 Weeks

Now
82 °F

Scattered clouds.


Feels Like: 86 °F
Forecast: 75 / 81 °F
Wind: 12 mph from Southeast

Location: Christmas / Cassidy

Current Time: Aug 25, 2016 at 5:09:37 PM

Latest Report: Aug 25, 2016 at 4:00 PM


Visibility: N/A

Pressure: 29.83 "Hg

Humidity: 66%

Dew Point: 70 °F

Location of KiritimatiLocation

Past Weather in Kiritimati — Graph

°F

Kiritimati Temperature Yesterday

Maximum temperature yesterday: 86 °F (at 2:00 PM)
Minimum temperature yesterday: 77 °F (at 2:00 AM)
Average temperature yesterday: 80 °F

High & Low Weather Summary for the Past Weeks

 TemperatureHumidityPressure
High86 °F (Aug 11, 2:00 PM)94% (Aug 19, 12:00 AM)29.92 "Hg (Aug 19, 12:00 AM)
Low77 °F (Aug 15, 4:00 AM)55% (Aug 21, 12:00 PM)29.74 "Hg (Aug 15, 3:00 PM)
Average81 °F74%29.82 "Hg
* Reported Aug 10 4:00 PM — Aug 25 4:00 PM, Kiritimati, Weather by CustomWeather, © 2016

Note: Actual official high and low records may vary slightly from our data, if they occured in-between our weather recording intervals... More about our weather records

Advertising

Kiritimati Weather History for the Previous 24 Hours

Scroll right to see more
 ConditionsComfort  
Time TempWeatherWind HumidityBarometerVisibility
4:00 PM
Thu, Aug 25
82 °FScattered clouds.12 mph66%29.83 "HgN/A
3:00 PM82 °FScattered clouds.16 mph66%29.83 "HgN/A
2:00 PM82 °FBroken clouds.18 mph66%29.86 "HgN/A
1:00 PM82 °FPartly sunny.12 mph66%29.86 "HgN/A
12:00 PM82 °FBroken clouds.18 mph66%29.89 "HgN/A
11:00 AM82 °FBroken clouds.9 mph66%29.89 "HgN/A
10:00 AM81 °FMostly cloudy.9 mph70%29.92 "HgN/A
8:00 AM79 °FBroken clouds.18 mph74%29.89 "HgN/A
7:00 AM79 °FBroken clouds.14 mph74%29.86 "HgN/A
6:00 AM79 °FBroken clouds.15 mph79%29.86 "HgN/A
5:00 AM79 °FBroken clouds.9 mph79%29.83 "HgN/A
4:00 AM79 °FPartly cloudy.10 mph74%29.83 "HgN/A
3:00 AM79 °FPartly cloudy.14 mph74%29.83 "HgN/A
2:00 AM79 °FPartly cloudy.12 mph74%29.83 "HgN/A
1:00 AM79 °FPassing clouds.12 mph74%29.86 "HgN/A
12:00 AM79 °FPassing clouds.9 mph74%29.86 "HgN/A
11:00 PM
Wed, Aug 24
79 °FPassing clouds.12 mph74%29.86 "HgN/A
10:00 PM79 °FPassing clouds.9 mph79%29.86 "HgN/A
9:00 PM79 °FPassing clouds.7 mph74%29.86 "HgN/A
8:00 PM79 °FPassing clouds.12 mph79%29.83 "HgN/A
7:00 PM79 °FPassing clouds.9 mph74%29.83 "HgN/A
5:00 PM81 °FPassing clouds.12 mph70%29.80 "HgN/A
Weather by CustomWeather, © 2016

See weather overviewHow to use our weather pages